Location: Anjeux
(47.8815°N, 6.2076°E)
Time: 10:12:12
(UTC+00:00)

AO-27 - Pass Details

Date: 11 December 2021
Orbit: 784 x 798 km, 98.9° (Epoch: 23 January)

Event Time Altitude Azimuth Distance (km) Brightness Sun altitude
Rises 17:46:01 0° 158° (SSE) 3,289 10.8 -19.7°
Reaches altitude 10° 17:48:20 10° 157° (SSE) 2,364 10.0 -20.1°
Maximum altitude 17:53:32 76° 73° (ENE) 827 7.5 -20.9°
Drops below altitude 10° 17:58:48 10° 348° (NNW) 2,382 10.2 -21.8°
Sets 18:01:08 0° 347° (NNW) 3,316 10.9 -22.2°
